VK2CZZ Weather Reports


time (UTC)temp
C
wind
direction
speed
KPH
gust
KPH
rain 1hr
cm
rain 24hr
cm
rain mn
cm
humidity
%
barometer
mb
20260509064039 19 184 0.0 0.0 0.00 0.00 0.00 64 1024.5
20260509063037 20 184 0.0 0.0 0.00 0.00 0.00 64 1024.4
20260509062058 20 360 0.0 0.0 0.00 0.00 0.00 64 1024.4
20260509061029 20 180 0.0 0.0 0.00 0.00 0.00 63 1024.3
20260509060022 20 184 0.0 0.0 0.00 0.00 0.00 64 1024.2
20260509055034 20 184 0.0 0.0 0.00 0.00 0.00 64 1024.1
20260509054051 20 189 0.0 0.0 0.00 0.00 0.00 64 1024.1
20260509053026 20 188 0.0 0.0 0.00 0.00 0.00 65 1024.0
20260509052020 20 178 0.0 0.0 0.00 0.00 0.00 64 1024.0
20260509051038 20 180 0.0 0.0 0.00 0.00 0.00 63 1024.0
20260509050052 21 186 0.0 0.0 0.00 0.00 0.00 61 1024.0
20260509045024 21 183 0.0 0.0 0.00 0.00 0.00 63 1023.9
20260509044020 21 196 0.0 11.3 0.00 0.00 0.00 63 1023.9
20260509043033 21 194 0.0 6.4 0.00 0.00 0.00 61 1024.0
20260509042031 21 192 0.0 0.0 0.00 0.00 0.00 64 1023.9
20260509041026 21 178 0.0 8.0 0.00 0.00 0.00 60 1023.9
20260509040024 21 161 0.0 3.2 0.00 0.00 0.00 60 1023.9
20260509035041 21 209 0.0 0.0 0.00 0.00 0.00 60 1023.9
20260509034038 21 190 0.0 0.0 0.00 0.00 0.00 61 1024.0
20260509033031 21 196 0.0 0.0 0.00 0.00 0.00 58 1024.1
20260509032026 21 190 0.0 11.3 0.00 0.00 0.00 53 1024.1
20260509031020 21 198 0.0 8.0 0.00 0.00 0.00 56 1024.3
20260509030032 21 211 0.0 9.7 0.00 0.00 0.00 52 1024.3
20260509025025 21 188 0.0 0.0 0.00 0.00 0.00 52 1024.4
20260509024020 21 187 0.0 0.0 0.00 0.00 0.00 53 1024.5
20260509023036 21 360 0.0 0.0 0.00 0.00 0.00 51 1024.7
20260509022050 21 192 0.0 0.0 0.00 0.00 0.00 52 1024.7
20260509021023 21 205 0.0 0.0 0.00 0.00 0.00 55 1024.8
20260509020038 21 207 0.0 0.0 0.00 0.00 0.00 53 1025.0
20260509015036 21 220 0.0 0.0 0.00 0.00 0.00 54 1025.1
20260509014034 20 240 0.0 0.0 0.00 0.00 0.00 55 1025.3
20260509013035 20 254 0.0 0.0 0.00 0.00 0.00 57 1025.4
20260509012029 20 238 0.0 6.4 0.00 0.00 0.00 56 1025.6
20260509011026 19 229 0.0 0.0 0.00 0.00 0.00 58 1025.6
20260509010021 19 249 0.0 0.0 0.00 0.00 0.00 57 1025.8
20260509005037 19 241 0.0 0.0 0.00 0.00 0.00 58 1026.0
20260509004032 18 244 0.0 8.0 0.00 0.00 0.00 60 1026.0
20260509003026 18 236 0.0 6.4 0.00 0.00 0.00 61 1025.9
20260509002022 17 288 0.0 0.0 0.00 0.00 0.00 63 1026.1
20260509001040 17 263 0.0 0.0 0.00 0.00 0.00 63 1026.1
20260509000034 17 292 0.0 9.7 0.00 0.00 0.00 64 1026.2
20260508235049 17 266 0.0 0.0 0.00 0.00 0.00 64 1026.2
20260508234027 17 279 0.0 0.0 0.00 0.00 0.00 65 1026.2
20260508233045 16 290 0.0 0.0 0.00 0.00 0.00 65 1026.3
20260508232019 16 276 0.0 8.0 0.00 0.00 0.00 65 1026.2
20260508231038 16 268 0.0 9.7 0.00 0.00 0.00 67 1026.2
20260508230032 16 265 0.0 4.8 0.00 0.00 0.00 67 1026.1
20260508225032 15 240 0.0 8.0 0.00 0.00 0.00 69 1026.1
20260508224027 15 253 0.0 0.0 0.00 0.00 0.00 71 1026.2
20260508223046 14 266 0.0 0.0 0.00 0.00 0.00 73 1026.0
20260508222022 13 267 0.0 0.0 0.00 0.00 0.00 74 1026.1
20260508221042 13 267 0.0 0.0 0.00 0.00 0.00 75 1025.9
20260508220017 12 269 0.0 0.0 0.00 0.00 0.00 76 1025.9
20260508215059 12 276 0.0 0.0 0.00 0.00 0.00 77 1025.7
20260508214033 12 265 0.0 0.0 0.00 0.00 0.00 79 1025.7
20260508213027 11 268 0.0 0.0 0.00 0.00 0.00 80 1025.5
20260508212021 11 268 0.0 0.0 0.00 0.00 0.00 81 1025.3
20260508211037 11 269 0.0 0.0 0.00 0.00 0.00 82 1025.2
20260508210033 11 270 0.0 0.0 0.00 0.00 0.00 82 1025.1
20260508205049 11 266 0.0 0.0 0.00 0.00 0.00 82 1025.0
20260508204021 11 265 0.0 0.0 0.00 0.00 0.00 81 1024.9
20260508203055 11 266 0.0 0.0 0.00 0.00 0.00 80 1024.7
20260508202029 11 267 0.0 0.0 0.00 0.00 0.00 80 1024.7
20260508201049 11 279 0.0 0.0 0.00 0.00 0.00 80 1024.6
20260508200019 11 279 0.0 0.0 0.00 0.00 0.00 79 1024.5
20260508195038 11 263 0.0 0.0 0.00 0.00 0.00 79 1024.4
20260508194036 11 263 0.0 0.0 0.00 0.00 0.00 79 1024.1
20260508193056 11 236 0.0 0.0 0.00 0.00 0.00 79 1023.9
20260508192028 11 246 0.0 0.0 0.00 0.00 0.00 77 1023.8
20260508191043 11 246 0.0 0.0 0.00 0.00 0.00 76 1023.7
20260508190039 12 246 0.0 0.0 0.00 0.00 0.00 75 1023.7
20260508185059 12 246 0.0 0.0 0.00 0.00 0.00 75 1023.6
20260508184031 12 246 0.0 0.0 0.00 0.00 0.00 74 1023.5
20260508183029 12 252 0.0 0.0 0.00 0.00 0.00 75 1023.5
20260508182025 12 271 0.0 0.0 0.00 0.00 0.00 75 1023.5
20260508181041 12 261 0.0 0.0 0.00 0.00 0.00 75 1023.5
20260508180038 12 255 0.0 0.0 0.00 0.00 0.00 75 1023.4
20260508175036 12 275 0.0 0.0 0.00 0.00 0.00 75 1023.4
20260508174032 12 281 0.0 0.0 0.00 0.00 0.00 75 1023.3
20260508173036 12 284 0.0 0.0 0.00 0.00 0.00 74 1023.3
20260508172029 12 270 0.0 0.0 0.00 0.00 0.00 74 1023.3
20260508171045 12 263 0.0 0.0 0.00 0.00 0.00 73 1023.3
20260508170040 13 263 0.0 0.0 0.00 0.00 0.00 72 1023.2
20260508165039 13 273 0.0 0.0 0.00 0.00 0.00 72 1023.1
20260508164032 12 269 0.0 0.0 0.00 0.00 0.00 73 1023.0
20260508163025 12 261 0.0 0.0 0.00 0.00 0.00 73 1023.2
20260508162040 12 263 0.0 0.0 0.00 0.00 0.00 73 1023.2
20260508161036 12 257 0.0 0.0 0.00 0.00 0.00 74 1023.1
20260508160050 12 265 0.0 0.0 0.00 0.00 0.00 74 1023.1
20260508155026 12 265 0.0 0.0 0.00 0.00 0.00 73 1023.1
20260508154021 12 266 0.0 0.0 0.00 0.00 0.00 73 1023.1
20260508153041 13 265 0.0 0.0 0.00 0.00 0.00 73 1023.1
20260508152038 13 268 0.0 0.0 0.00 0.00 0.00 73 1023.2
20260508151037 12 270 0.0 0.0 0.00 0.00 0.00 74 1023.2
20260508150033 12 269 0.0 0.0 0.00 0.00 0.00 74 1023.2
20260508145038 12 269 0.0 0.0 0.00 0.00 0.00 73 1023.1
20260508144038 13 269 0.0 0.0 0.00 0.00 0.00 72 1023.1
20260508143032 13 269 0.0 0.0 0.00 0.00 0.00 72 1023.1
20260508142022 13 269 0.0 0.0 0.00 0.00 0.00 72 1023.0
20260508141040 13 269 0.0 0.0 0.00 0.00 0.00 71 1023.0
20260508140035 13 269 0.0 0.0 0.00 0.00 0.00 71 1022.9
20260508135030 13 269 0.0 0.0 0.00 0.00 0.00 70 1023.0
20260508134047 13 269 0.0 0.0 0.00 0.00 0.00 69 1022.9
20260508133044 13 269 0.0 0.0 0.00 0.00 0.00 68 1022.9
20260508132037 13 267 0.0 0.0 0.00 0.00 0.00 68 1022.9
20260508131029 14 254 0.0 0.0 0.00 0.00 0.00 68 1022.8
20260508130025 14 244 0.0 0.0 0.00 0.00 0.00 67 1022.8
20260508125022 14 263 0.0 0.0 0.00 0.00 0.00 67 1022.8
20260508124036 14 268 0.0 0.0 0.00 0.00 0.00 67 1022.8
20260508123037 14 273 0.0 0.0 0.00 0.00 0.00 66 1022.6
20260508122033 14 244 0.0 0.0 0.00 0.00 0.00 65 1022.7
20260508121029 15 235 0.0 0.0 0.00 0.00 0.00 65 1022.8
20260508120022 15 267 0.0 1.6 0.00 0.00 0.00 64 1022.6
20260508115034 15 252 0.0 0.0 0.00 0.00 0.00 64 1022.5
20260508114053 15 265 0.0 0.0 0.00 0.00 0.00 62 1022.5
20260508113024 15 246 0.0 8.0 0.00 0.00 0.00 62 1022.5
20260508112036 15 302 0.0 8.0 0.00 0.00 0.00 62 1022.4
20260508111034 15 221 0.0 3.2 0.00 0.00 0.00 62 1022.3
20260508110031 15 257 0.0 9.7 0.00 0.00 0.00 62 1022.2
20260508105048 15 252 0.0 0.0 0.00 0.00 0.00 62 1022.0
20260508104043 15 265 0.0 0.0 0.00 0.00 0.00 62 1022.0
20260508103035 15 279 0.0 0.0 0.00 0.00 0.00 61 1021.8
20260508102031 15 245 0.0 0.0 0.00 0.00 0.00 60 1021.6
20260508101047 15 253 0.0 0.0 0.00 0.00 0.00 62 1021.4
20260508100018 16 273 0.0 0.0 0.00 0.00 0.00 60 1021.2
20260508095101 16 245 0.0 0.0 0.00 0.00 0.00 59 1021.2
20260508094039 15 252 0.0 0.0 0.00 0.00 0.00 60 1021.0
20260508093035 16 271 0.0 0.0 0.00 0.00 0.00 58 1020.9
20260508092032 16 205 0.0 0.0 0.00 0.00 0.00 56 1020.8
20260508091030 17 206 0.0 0.0 0.00 0.00 0.00 54 1020.6
20260508090025 17 209 0.0 0.0 0.00 0.00 0.00 54 1020.3
20260508085040 17 234 0.0 0.0 0.00 0.00 0.00 54 1020.2
20260508084038 17 232 0.0 0.0 0.00 0.00 0.00 53 1019.9
20260508083031 17 208 0.0 0.0 0.00 0.00 0.00 54 1019.7
20260508082027 17 204 0.0 0.0 0.00 0.00 0.00 53 1019.6
20260508081043 18 204 0.0 0.0 0.00 0.00 0.00 53 1019.5
20260508080100 18 200 0.0 0.0 0.00 0.00 0.00 52 1019.2
20260508075025 18 200 0.0 0.0 0.00 0.00 0.00 51 1019.0
20260508074042 18 196 0.0 0.0 0.00 0.00 0.00 50 1018.8
20260508073034 18 209 0.0 0.0 0.00 0.00 0.00 50 1018.6
20260508072030 18 226 0.0 0.0 0.00 0.00 0.00 51 1018.4
20260508071025 18 234 0.0 0.0 0.00 0.00 0.00 50 1018.3
20260508070018 19 239 0.0 0.0 0.00 0.00 0.00 48 1018.1
20260508065038 20 244 0.0 0.0 0.00 0.00 0.00 46 1017.8